Home > Weather > Zweibrücken > Past weeks

Flag for Germany Past Weather in Zweibrücken, Rhineland-Palatinate, Germany — Yesterday and Last 2 Weeks

Now
73 °F

Passing clouds.


Feels Like: 76 °F
Forecast: 59 / 75 °F
Wind: 17 mph from Southwest

Location: Saarbruecken / Ensheim

Current Time: Jul 29, 2016 at 6:05:19 PM

Latest Report: Jul 29, 2016 at 5:20 PM


Visibility: N/A

Pressure: 29.95 "Hg

Humidity: 65%

Dew Point: 61 °F

Location of ZweibrückenLocation

Past Weather in Zweibrücken — Graph

°F

Zweibrücken Temperature Yesterday

Maximum temperature yesterday: 73 °F (at 3:50 PM)
Minimum temperature yesterday: 59 °F (at 3:50 AM)
Average temperature yesterday: 65 °F

High & Low Weather Summary for the Past Weeks

 TemperatureHumidityPressure
High90 °F (Jul 20, 2:50 PM)100% (Jul 15, 12:50 AM)30.33 "Hg (Jul 15, 12:50 AM)
Low46 °F (Jul 15, 4:50 AM)31% (Jul 20, 5:50 PM)29.95 "Hg (Jul 20, 4:50 PM)
Average68 °F76%30.12 "Hg
* Reported Jul 14 4:20 PM — Jul 29 4:50 PM, Zweibrücken, Weather by CustomWeather, © 2016

Note: Actual official high and low records may vary slightly from our data, if they occured in-between our weather recording intervals... More about our weather records

Advertising

Zweibrücken Weather History for the Previous 24 Hours

Scroll right to see more
 ConditionsComfort  
Time TempWeatherWind HumidityBarometerVisibility
4:50 PM
Fri, Jul 29
73 °FPassing clouds.20 mph61%29.98 "HgN/A
4:20 PM75 °FPassing clouds.16 mph61%29.98 "HgN/A
3:50 PM73 °FPassing clouds.16 mph69%29.98 "HgN/A
3:20 PM73 °FPassing clouds.17 mph65%29.98 "HgN/A
2:50 PM73 °FScattered clouds.16 mph69%29.98 "HgN/A
2:20 PM72 °FBroken clouds.16 mph69%29.98 "HgN/A
1:50 PM72 °FBroken clouds.16 mph73%29.98 "HgN/A
1:20 PM70 °FBroken clouds.12 mph78%30.01 "HgN/A
12:50 PM70 °FBroken clouds.12 mph78%29.98 "HgN/A
12:20 PM68 °FBroken clouds.14 mph83%30.01 "HgN/A
11:50 AM68 °FBroken clouds.10 mph83%30.01 "HgN/A
11:20 AM66 °FBroken clouds.9 mph88%30.01 "HgN/A
10:50 AM66 °FBroken clouds.13 mph88%30.01 "HgN/A
10:20 AM66 °FPartly sunny.10 mph88%30.01 "HgN/A
9:50 AM64 °FPartly sunny.9 mph94%30.01 "HgN/A
9:20 AM64 °FBroken clouds.7 mph88%30.01 "HgN/A
8:50 AM64 °FBroken clouds.7 mph88%30.01 "HgN/A
8:20 AM63 °FBroken clouds.5 mph94%30.01 "HgN/A
7:50 AM63 °FPartly sunny.6 mph94%30.01 "HgN/A
7:20 AM61 °FBroken clouds.7 mph100%30.01 "HgN/A
6:50 AM61 °FPartly cloudy.6 mph94%30.01 "HgN/A
6:20 AM61 °FPartly cloudy.3 mph94%30.01 "HgN/A
5:50 AM61 °FPartly cloudy.7 mph94%30.01 "HgN/A
5:20 AM61 °FPassing clouds.6 mph100%30.01 "HgN/A
4:50 AM61 °FPartly cloudy.5 mph100%30.01 "HgN/A
4:20 AM61 °FPassing clouds.5 mph100%30.01 "HgN/A
3:50 AM61 °FPassing clouds.6 mph94%30.01 "HgN/A
3:20 AM61 °FLow clouds.2 mph100%30.01 "Hg6 mi
2:50 AM61 °FPassing clouds.6 mph100%30.01 "Hg6 mi
2:20 AM63 °FPassing clouds.6 mph94%30.01 "HgN/A
1:50 AM63 °FPartly cloudy.3 mph94%30.04 "HgN/A
1:20 AM63 °FPassing clouds.5 mph100%30.04 "HgN/A
12:50 AM63 °FPassing clouds.6 mph100%30.04 "HgN/A
12:20 AM64 °FPassing clouds.7 mph94%30.04 "HgN/A
11:50 PM
Thu, Jul 28
63 °FPassing clouds.6 mph100%30.01 "HgN/A
11:20 PM63 °FPartly cloudy.5 mph100%30.04 "HgN/A
10:50 PM63 °FPassing clouds.7 mph94%30.04 "HgN/A
10:20 PM63 °FPartly cloudy.5 mph100%30.01 "HgN/A
9:50 PM64 °FPartly sunny.5 mph94%30.01 "HgN/A
9:20 PM64 °FPartly sunny.9 mph94%30.01 "HgN/A
8:50 PM64 °FPartly sunny.8 mph94%30.01 "HgN/A
8:20 PM66 °FPartly sunny.8 mph94%30.01 "HgN/A
7:50 PM68 °FBroken clouds.7 mph94%30.01 "HgN/A
7:20 PM68 °FBroken clouds.7 mph94%30.01 "HgN/A
6:50 PM66 °FBroken clouds.6 mph94%30.01 "HgN/A
6:20 PM66 °FPartly sunny.7 mph94%30.01 "HgN/A
Weather by CustomWeather, © 2016

See weather overviewHow to use our weather pages